QPF
0.03 0.02 0.02 0.01 0.01 0.01 0.02 0.02 0.02 0.02 0.03 0.05 0.04 0.03 0.04 0.04 0.05 0.04 0.02 0.02 0.03 0.04 0.03 0.03 0.04 0.04 0.04 0.04 0.04 0.04 0.06 0.07 0.06 0.06 0.06 0.06 0.06 0.08 0.12 0.12 0.08 0.07 0.06 0.06
0.04 0.02 0.02 0.01 0.02 0.02 0.02 0.02 0.02 0.02 0.02 0.05 0.05 0.05 0.05 0.04 0.04 0.04 0.02 0.02 0.02 0.02 0.03 0.03 0.03 0.04 0.04 0.04 0.04 0.04 0.05 0.07 0.06 0.06 0.06 0.07 0.06 0.05 0.09 0.16 0.12 0.09 0.07 0.06
0.04 0.03 0.02 0.02 0.02 0.03 0.03 0.02 0.02 0.02 0.03 0.05 0.06 0.07 0.06 0.04 0.03 0.04 0.03 0.02 0.01 0.02 0.02 0.02 0.02 0.02 0.03 0.04 0.04 0.04 0.04 0.05 0.07 0.08 0.08 0.09 0.09 0.08 0.08 0.15 0.16 0.12 0.08 0.05
0.03 0.02 0.02 0.02 0.02 0.03 0.03 0.02 0.02 0.02 0.03 0.05 0.05 0.07 0.07 0.05 0.03 0.04 0.03 0.02 0.02 0.02 0.02 0.02 0.02 0.02 0.02 0.03 0.04 0.04 0.04 0.05 0.08 0.10 0.10 0.08 0.07 0.06 0.05 0.09 0.17 0.17 0.13 0.08
0.02 0.01 0.02 0.02 0.02 0.03 0.03 0.02 0.02 0.03 0.04 0.04 0.04 0.06 0.08 0.06 0.04 0.04 0.03 0.02 0.02 0.02 0.02 0.02 0.02 0.02 0.02 0.03 0.03 0.04 0.05 0.05 0.06 0.09 0.12 0.11 0.08 0.06 0.05 0.06 0.11 0.16 0.15 0.11
0.02 0.01 0.02 0.02 0.02 0.02 0.02 0.03 0.03 0.04 0.04 0.03 0.03 0.05 0.07 0.06 0.04 0.03 0.03 0.02 0.02 0.02 0.02 0.02 0.02 0.02 0.02 0.02 0.03 0.03 0.04 0.04 0.05 0.07 0.10 0.12 0.10 0.08 0.07 0.05 0.05 0.09 0.14 0.15
0.02 0.02 0.02 0.02 0.02 0.03 0.03 0.05 0.06 0.06 0.05 0.02 0.02 0.04 0.05 0.05 0.04 0.03 0.04 0.02 0.02 0.02 0.02 0.02 0.02 0.02 0.02 0.02 0.02 0.02 0.03 0.04 0.05 0.06 0.07 0.08 0.10 0.11 0.10 0.07 0.05 0.05 0.09 0.13
0.03 0.03 0.02 0.02 0.02 0.03 0.03 0.04 0.06 0.05 0.05 0.03 0.02 0.02 0.03 0.04 0.03 0.02 0.02 0.01 0.01 0.01 0.01 0.01 0.01 0.02 0.02 0.02 0.02 0.02 0.03 0.03 0.04 0.05 0.05 0.06 0.09 0.11 0.12 0.09 0.07 0.06 0.06 0.08
0.02 0.02 0.03 0.02 0.02 0.02 0.03 0.03 0.04 0.03 0.03 0.02 0.01 0.01 0.01 0.02 0.03 0.02 0.01 0.01 0.01 0.01 0.01 0.01 0.02 0.02 0.02 0.02 0.02 0.03 0.03 0.03 0.03 0.04 0.06 0.07 0.08 0.10 0.12 0.12 0.10 0.09 0.08 0.07
0.02 0.02 0.02 0.01 0.01 0.02 0.02 0.03 0.03 0.04 0.03 0.02 0.01 0.01 0.01 0.01 0.01 0.02 0.01 0.01 0.01 0.01 0.01 0.01 0.02 0.02 0.03 0.03 0.03 0.03 0.04 0.04 0.03 0.03 0.05 0.07 0.08 0.09 0.12 0.13 0.12 0.11 0.10 0.08
0.01 0.02 0.02 0.01 0.02 0.02 0.02 0.03 0.03 0.03 0.03 0.03 0.02 0.01 0.01 0.01 0.01 0.01 0.02 0.02 0.02 0.02 0.02 0.02 0.02 0.02 0.03 0.05 0.05 0.03 0.02 0.04 0.06 0.05 0.04 0.06 0.07 0.08 0.10 0.12 0.12 0.12 0.11 0.08
0.01 0.02 0.02 0.01 0.01 0.01 0.01 0.01 0.01 0.02 0.02 0.02 0.02 0.01 0.01 0.01 0.01 0.01 0.01 0.02 0.01 0.02 0.02 0.03 0.02 0.02 0.05 0.07 0.05 0.04 0.03 0.03 0.05 0.08 0.07 0.07 0.07 0.07 0.09 0.10 0.12 0.11 0.11 0.11
0.02 0.02 0.02 0.01 0.02 0.01 0.01 0.01 0.01 0.01 0.02 0.02 0.01 0.00 0.00 0.01 0.01 0.01 0.01 0.01 0.01 0.02 0.03 0.03 0.02 0.02 0.04 0.06 0.05 0.05 0.05 0.05 0.04 0.06 0.10 0.12 0.10 0.08 0.08 0.09 0.10 0.10 0.09 0.10
0.02 0.04 0.02 0.01 0.01 0.01 0.01 0.00 0.00 0.01 0.02 0.01 0.00 0.00 0.00 0.01 0.01 0.01 0.01 0.01 0.01 0.03 0.05 0.03 0.02 0.02 0.03 0.04 0.05 0.05 0.07 0.07 0.06 0.05 0.06 0.11 0.13 0.10 0.08 0.07 0.08 0.09 0.09 0.08
0.01 0.01 0.01 0.00 0.00 0.00 0.00 0.00 0.00 0.00 0.00 0.00 0.00 0.00 0.01 0.01 0.02 0.02 0.02 0.02 0.02 0.03 0.06 0.05 0.03 0.03 0.03 0.04 0.05 0.05 0.07 0.08 0.07 0.05 0.06 0.07 0.10 0.12 0.11 0.10 0.08 0.08 0.08 0.07
0.00 0.00 0.00 0.00 0.00 0.00 0.00 0.00 0.01 0.00 0.00 0.00 0.00 0.00 0.01 0.01 0.02 0.03 0.03 0.03 0.04 0.04 0.07 0.07 0.04 0.03 0.03 0.04 0.06 0.06 0.07 0.09 0.09 0.07 0.07 0.07 0.08 0.09 0.10 0.11 0.13 0.10 0.07 0.07
0.00 0.00 0.01 0.00 0.00 0.00 0.00 0.00 0.01 0.00 0.00 0.00 0.00 0.00 0.00 0.01 0.01 0.03 0.03 0.03 0.04 0.05 0.06 0.07 0.07 0.05 0.04 0.05 0.07 0.07 0.08 0.09 0.11 0.10 0.09 0.07 0.07 0.07 0.07 0.08 0.09 0.11 0.11 0.10
0.00 0.01 0.01 0.01 0.00 0.01 0.00 0.00 0.00 0.01 0.01 0.00 0.00 0.00 0.01 0.01 0.01 0.01 0.02 0.02 0.03 0.03 0.04 0.07 0.09 0.08 0.06 0.05 0.08 0.09 0.08 0.09 0.11 0.13 0.13 0.09 0.07 0.06 0.07 0.07 0.08 0.09 0.10 0.11
0.00 0.01 0.01 0.01 0.01 0.00 0.00 0.00 0.01 0.01 0.01 0.00 0.00 0.00 0.01 0.01 0.01 0.01 0.01 0.01 0.03 0.04 0.05 0.08 0.10 0.08 0.07 0.07 0.09 0.10 0.09 0.09 0.10 0.13 0.14 0.11 0.10 0.09 0.08 0.09 0.09 0.10 0.11 0.11
0.00 0.01 0.02 0.02 0.01 0.01 0.00 0.00 0.00 0.01 0.01 0.00 0.01 0.01 0.01 0.01 0.01 0.01 0.00 0.01 0.02 0.04 0.05 0.07 0.09 0.06 0.06 0.07 0.09 0.10 0.11 0.10 0.09 0.11 0.13 0.12 0.11 0.11 0.10 0.10 0.10 0.11 0.12 0.14
0.01 0.01 0.02 0.02 0.02 0.01 0.00 0.00 0.00 0.01 0.01 0.01 0.01 0.01 0.02 0.02 0.02 0.01 0.01 0.01 0.02 0.03 0.04 0.06 0.07 0.05 0.05 0.06 0.07 0.08 0.10 0.10 0.09 0.09 0.11 0.10 0.10 0.10 0.11 0.11 0.11 0.11 0.12 0.14
0.01 0.01 0.01 0.01 0.01 0.01 0.00 0.00 0.01 0.01 0.01 0.01 0.01 0.02 0.02 0.01 0.01 0.01 0.01 0.01 0.02 0.02 0.03 0.04 0.05 0.05 0.04 0.05 0.06 0.07 0.09 0.09 0.08 0.08 0.08 0.08 0.09 0.09 0.09 0.09 0.10 0.11 0.11 0.13
0.01 0.01 0.01 0.01 0.01 0.01 0.01 0.01 0.01 0.02 0.02 0.02 0.02 0.02 0.01 0.01 0.01 0.01 0.01 0.01 0.02 0.02 0.02 0.03 0.04 0.04 0.04 0.04 0.05 0.06 0.08 0.08 0.07 0.09 0.09 0.09 0.09 0.10 0.09 0.08 0.08 0.09 0.09 0.10
0.00 0.00 0.00 0.01 0.01 0.01 0.01 0.01 0.01 0.01 0.02 0.02 0.01 0.01 0.01 0.01 0.01 0.01 0.01 0.01 0.01 0.02 0.02 0.03 0.03 0.03 0.03 0.03 0.04 0.05 0.07 0.07 0.07 0.08 0.09 0.09 0.08 0.09 0.10 0.09 0.09 0.09 0.09 0.10
0.00 0.00 0.00 0.00 0.00 0.01 0.01 0.01 0.01 0.02 0.02 0.01 0.01 0.00 0.00 0.00 0.00 0.00 0.01 0.01 0.01 0.01 0.02 0.02 0.02 0.02 0.03 0.03 0.03 0.04 0.06 0.07 0.07 0.07 0.08 0.08 0.08 0.08 0.08 0.08 0.09 0.09 0.09 0.09
0.00 0.00 0.00 0.00 0.00 0.01 0.01 0.01 0.02 0.02 0.01 0.01 0.01 0.00 0.00 0.00 0.00 0.00 0.01 0.01 0.01 0.01 0.01 0.02 0.02 0.02 0.02 0.02 0.03 0.04 0.05 0.05 0.05 0.06 0.07 0.07 0.07 0.07 0.07 0.06 0.07 0.07 0.07 0.06
MSLP
1015.52 1016.14 1016.72 1017.28 1017.83 1018.40 1019.07 1019.85 1020.79 1021.87 1023.07 1024.32 1025.56 1026.72 1027.74 1028.57 1029.22 1029.70 1030.06 1030.33 1030.56 1030.77 1030.98 1031.16 1031.29 1031.31 1031.20 1030.95 1030.54 1030.03 1029.45 1028.86 1028.34 1027.92 1027.62 1027.44 1027.35 1027.30 1027.25 1027.14 1026.94 1026.66 1026.29 1025.87
1015.87 1016.49 1017.08 1017.66 1018.24 1018.87 1019.58 1020.41 1021.38 1022.48 1023.67 1024.91 1026.12 1027.26 1028.26 1029.10 1029.77 1030.29 1030.70 1031.03 1031.32 1031.58 1031.82 1032.01 1032.13 1032.14 1032.02 1031.76 1031.37 1030.88 1030.34 1029.81 1029.33 1028.94 1028.67 1028.49 1028.39 1028.32 1028.24 1028.10 1027.88 1027.58 1027.21 1026.79
1016.31 1016.88 1017.44 1018.00 1018.58 1019.21 1019.93 1020.76 1021.72 1022.80 1023.96 1025.16 1026.35 1027.47 1028.49 1029.38 1030.12 1030.73 1031.24 1031.66 1032.03 1032.34 1032.60 1032.80 1032.90 1032.90 1032.76 1032.50 1032.13 1031.68 1031.19 1030.72 1030.29 1029.94 1029.68 1029.49 1029.36 1029.26 1029.13 1028.96 1028.72 1028.41 1028.04 1027.62
1016.90 1017.38 1017.86 1018.36 1018.89 1019.48 1020.15 1020.94 1021.86 1022.88 1023.98 1025.14 1026.30 1027.43 1028.49 1029.45 1030.29 1031.03 1031.66 1032.20 1032.65 1033.02 1033.30 1033.49 1033.58 1033.54 1033.40 1033.15 1032.81 1032.41 1031.98 1031.57 1031.19 1030.87 1030.61 1030.41 1030.24 1030.08 1029.90 1029.69 1029.42 1029.10 1028.74 1028.33
1017.69 1018.05 1018.42 1018.81 1019.25 1019.76 1020.36 1021.07 1021.90 1022.84 1023.87 1024.97 1026.10 1027.23 1028.33 1029.38 1030.34 1031.21 1031.98 1032.63 1033.17 1033.59 1033.89 1034.07 1034.13 1034.07 1033.92 1033.68 1033.37 1033.03 1032.68 1032.33 1032.01 1031.71 1031.46 1031.23 1031.01 1030.79 1030.56 1030.30 1030.00 1029.67 1029.31 1028.91
1018.73 1018.94 1019.17 1019.43 1019.75 1020.15 1020.65 1021.26 1021.98 1022.81 1023.75 1024.77 1025.86 1026.98 1028.12 1029.24 1030.31 1031.31 1032.20 1032.96 1033.57 1034.04 1034.34 1034.50 1034.54 1034.46 1034.30 1034.07 1033.82 1033.54 1033.26 1032.99 1032.73 1032.47 1032.21 1031.95 1031.69 1031.42 1031.13 1030.82 1030.50 1030.15 1029.78 1029.37
1019.97 1020.02 1020.10 1020.23 1020.42 1020.71 1021.10 1021.59 1022.20 1022.91 1023.74 1024.67 1025.70 1026.80 1027.95 1029.12 1030.28 1031.37 1032.35 1033.19 1033.86 1034.35 1034.66 1034.79 1034.80 1034.70 1034.54 1034.35 1034.14 1033.94 1033.74 1033.55 1033.35 1033.13 1032.88 1032.60 1032.30 1031.98 1031.64 1031.29 1030.94 1030.57 1030.19 1029.77
1021.32 1021.23 1021.17 1021.18 1021.26 1021.45 1021.73 1022.12 1022.62 1023.22 1023.93 1024.76 1025.70 1026.75 1027.89 1029.08 1030.27 1031.42 1032.46 1033.34 1034.04 1034.54 1034.83 1034.95 1034.93 1034.82 1034.67 1034.51 1034.36 1034.23 1034.12 1034.01 1033.86 1033.69 1033.45 1033.17 1032.84 1032.48 1032.10 1031.72 1031.34 1030.96 1030.56 1030.13
1022.65 1022.44 1022.28 1022.20 1022.21 1022.32 1022.53 1022.84 1023.23 1023.73 1024.33 1025.05 1025.90 1026.87 1027.96 1029.13 1030.33 1031.49 1032.54 1033.44 1034.14 1034.63 1034.90 1034.99 1034.96 1034.85 1034.71 1034.58 1034.49 1034.44 1034.40 1034.36 1034.28 1034.14 1033.93 1033.65 1033.30 1032.91 1032.51 1032.10 1031.71 1031.31 1030.90 1030.45
1023.80 1023.53 1023.32 1023.20 1023.18 1023.25 1023.42 1023.67 1023.99 1024.40 1024.90 1025.51 1026.26 1027.15 1028.17 1029.29 1030.44 1031.58 1032.62 1033.50 1034.19 1034.65 1034.90 1034.97 1034.92 1034.81 1034.69 1034.60 1034.56 1034.57 1034.60 1034.62 1034.60 1034.49 1034.30 1034.02 1033.66 1033.26 1032.84 1032.42 1032.01 1031.60 1031.18 1030.72
1024.68 1024.41 1024.20 1024.09 1024.08 1024.16 1024.32 1024.54 1024.81 1025.14 1025.56 1026.08 1026.73 1027.52 1028.45 1029.50 1030.59 1031.68 1032.68 1033.53 1034.18 1034.62 1034.84 1034.90 1034.84 1034.74 1034.64 1034.58 1034.59 1034.64 1034.72 1034.79 1034.80 1034.72 1034.54 1034.26 1033.90 1033.49 1033.06 1032.64 1032.22 1031.81 1031.38 1030.91
1025.30 1025.07 1024.91 1024.85 1024.88 1024.99 1025.16 1025.37 1025.60 1025.88 1026.22 1026.65 1027.20 1027.90 1028.74 1029.71 1030.73 1031.75 1032.70 1033.51 1034.12 1034.53 1034.74 1034.79 1034.74 1034.65 1034.57 1034.54 1034.57 1034.66 1034.77 1034.86 1034.88 1034.82 1034.64 1034.37 1034.01 1033.60 1033.16 1032.73 1032.32 1031.91 1031.48 1031.01
1025.74 1025.59 1025.51 1025.51 1025.60 1025.74 1025.92 1026.11 1026.31 1026.52 1026.79 1027.14 1027.60 1028.22 1028.97 1029.85 1030.80 1031.76 1032.65 1033.41 1033.99 1034.38 1034.58 1034.63 1034.59 1034.51 1034.46 1034.45 1034.50 1034.61 1034.74 1034.83 1034.86 1034.80 1034.63 1034.35 1033.99 1033.58 1033.15 1032.73 1032.31 1031.90 1031.48 1031.02
1026.15 1026.10 1026.10 1026.18 1026.30 1026.45 1026.61 1026.76 1026.90 1027.04 1027.22 1027.49 1027.87 1028.40 1029.07 1029.88 1030.76 1031.65 1032.48 1033.20 1033.75 1034.12 1034.32 1034.38 1034.36 1034.31 1034.28 1034.30 1034.37 1034.49 1034.62 1034.73 1034.76 1034.69 1034.52 1034.25 1033.90 1033.49 1033.07 1032.65 1032.24 1031.83 1031.41 1030.95
1026.70 1026.74 1026.82 1026.93 1027.05 1027.17 1027.27 1027.33 1027.38 1027.42 1027.51 1027.68 1027.98 1028.42 1029.02 1029.75 1030.56 1031.39 1032.17 1032.85 1033.38 1033.74 1033.94 1034.02 1034.03 1034.01 1034.02 1034.07 1034.17 1034.31 1034.45 1034.56 1034.60 1034.54 1034.38 1034.12 1033.78 1033.39 1032.98 1032.56 1032.15 1031.75 1031.32 1030.85
1027.49 1027.62 1027.74 1027.83 1027.90 1027.93 1027.91 1027.85 1027.75 1027.67 1027.64 1027.71 1027.92 1028.28 1028.81 1029.47 1030.21 1030.98 1031.70 1032.34 1032.84 1033.19 1033.41 1033.52 1033.57 1033.61 1033.66 1033.76 1033.90 1034.08 1034.25 1034.38 1034.44 1034.41 1034.27 1034.03 1033.71 1033.34 1032.94 1032.53 1032.12 1031.70 1031.25 1030.76
1028.55 1028.72 1028.83 1028.87 1028.83 1028.71 1028.52 1028.28 1028.02 1027.79 1027.63 1027.59 1027.71 1027.99 1028.45 1029.04 1029.72 1030.42 1031.10 1031.69 1032.16 1032.52 1032.75 1032.90 1033.01 1033.11 1033.23 1033.40 1033.61 1033.84 1034.06 1034.24 1034.34 1034.34 1034.24 1034.03 1033.74 1033.39 1033.01 1032.59 1032.17 1031.72 1031.23 1030.70
1029.76 1029.94 1030.00 1029.92 1029.73 1029.42 1029.03 1028.59 1028.15 1027.76 1027.47 1027.33 1027.37 1027.58 1027.97 1028.50 1029.12 1029.76 1030.38 1030.93 1031.39 1031.74 1032.00 1032.20 1032.38 1032.57 1032.79 1033.05 1033.35 1033.66 1033.95 1034.18 1034.34 1034.39 1034.33 1034.16 1033.91 1033.58 1033.19 1032.76 1032.30 1031.81 1031.26 1030.66
1030.92 1031.06 1031.02 1030.80 1030.42 1029.91 1029.32 1028.69 1028.08 1027.55 1027.16 1026.94 1026.92 1027.08 1027.42 1027.90 1028.46 1029.05 1029.62 1030.14 1030.58 1030.94 1031.24 1031.51 1031.78 1032.07 1032.40 1032.77 1033.17 1033.57 1033.95 1034.25 1034.47 1034.57 1034.55 1034.41 1034.17 1033.85 1033.45 1033.00 1032.49 1031.93 1031.31 1030.63
1031.76 1031.83 1031.66 1031.29 1030.73 1030.03 1029.26 1028.47 1027.74 1027.13 1026.68 1026.42 1026.38 1026.52 1026.84 1027.29 1027.81 1028.36 1028.89 1029.38 1029.82 1030.20 1030.56 1030.90 1031.27 1031.68 1032.13 1032.62 1033.13 1033.63 1034.08 1034.45 1034.71 1034.84 1034.85 1034.73 1034.49 1034.15 1033.73 1033.23 1032.66 1032.03 1031.32 1030.54
1032.05 1032.01 1031.72 1031.19 1030.48 1029.64 1028.75 1027.88 1027.10 1026.46 1026.02 1025.78 1025.76 1025.92 1026.25 1026.69 1027.19 1027.72 1028.23 1028.71 1029.16 1029.59 1030.01 1030.45 1030.93 1031.46 1032.03 1032.64 1033.25 1033.83 1034.34 1034.75 1035.03 1035.17 1035.17 1035.03 1034.77 1034.39 1033.92 1033.37 1032.73 1032.02 1031.23 1030.36
1031.66 1031.49 1031.07 1030.42 1029.61 1028.70 1027.77 1026.89 1026.14 1025.56 1025.19 1025.03 1025.08 1025.31 1025.68 1026.14 1026.65 1027.17 1027.69 1028.18 1028.66 1029.14 1029.64 1030.18 1030.78 1031.42 1032.10 1032.81 1033.49 1034.13 1034.66 1035.08 1035.35 1035.46 1035.42 1035.24 1034.92 1034.50 1033.97 1033.35 1032.65 1031.87 1031.01 1030.07
1030.55 1030.26 1029.72 1029.00 1028.15 1027.24 1026.36 1025.56 1024.93 1024.48 1024.25 1024.22 1024.39 1024.71 1025.14 1025.65 1026.19 1026.73 1027.27 1027.80 1028.33 1028.87 1029.46 1030.10 1030.79 1031.54 1032.31 1033.08 1033.81 1034.46 1034.98 1035.37 1035.59 1035.64 1035.53 1035.28 1034.90 1034.41 1033.82 1033.15 1032.40 1031.58 1030.68 1029.70
1028.85 1028.43 1027.82 1027.07 1026.24 1025.42 1024.66 1024.02 1023.57 1023.31 1023.26 1023.41 1023.72 1024.15 1024.67 1025.23 1025.82 1026.40 1026.97 1027.54 1028.13 1028.75 1029.42 1030.14 1030.92 1031.74 1032.57 1033.37 1034.10 1034.73 1035.21 1035.53 1035.67 1035.64 1035.45 1035.12 1034.67 1034.12 1033.49 1032.79 1032.02 1031.18 1030.28 1029.31
1026.77 1026.24 1025.58 1024.85 1024.12 1023.43 1022.86 1022.44 1022.21 1022.18 1022.34 1022.66 1023.12 1023.67 1024.27 1024.90 1025.53 1026.15 1026.76 1027.38 1028.03 1028.71 1029.46 1030.25 1031.09 1031.95 1032.80 1033.59 1034.29 1034.86 1035.27 1035.50 1035.54 1035.42 1035.15 1034.75 1034.26 1033.67 1033.03 1032.32 1031.57 1030.76 1029.90 1028.98
1024.57 1023.95 1023.29 1022.63 1022.02 1021.52 1021.17 1021.00 1021.01 1021.21 1021.57 1022.06 1022.65 1023.30 1023.97 1024.65 1025.31 1025.96 1026.62 1027.28 1027.98 1028.72 1029.51 1030.35 1031.22 1032.09 1032.92 1033.67 1034.31 1034.80 1035.11 1035.24 1035.20 1035.01 1034.68 1034.24 1033.73 1033.15 1032.53 1031.86 1031.16 1030.42 1029.63 1028.79
Thickness
5542 5535 5531 5535 5540 5543 5544 5544 5544 5552 5559 5558 5560 5565 5573 5578 5580 5582 5586 5591 5595 5599 5605 5610 5613 5616 5619 5621 5626 5629 5632 5634 5635 5636 5637 5639 5640 5642 5643 5645 5646 5647 5647 5647
5529 5526 5534 5539 5541 5541 5539 5538 5539 5546 5553 5553 5552 5557 5565 5571 5574 5576 5578 5581 5586 5590 5594 5599 5603 5606 5608 5611 5615 5619 5623 5624 5626 5627 5629 5630 5632 5634 5635 5636 5637 5638 5638 5638
5525 5529 5536 5536 5533 5533 5532 5531 5534 5537 5542 5545 5544 5548 5557 5563 5566 5569 5570 5573 5577 5582 5583 5587 5592 5595 5598 5601 5605 5609 5612 5615 5617 5618 5619 5620 5621 5623 5625 5626 5628 5629 5630 5630
5521 5527 5530 5529 5528 5529 5526 5534 5535 5535 5527 5524 5533 5528 5546 5553 5556 5559 5559 5561 5564 5569 5573 5576 5580 5583 5587 5591 5594 5598 5600 5604 5607 5609 5609 5610 5612 5613 5616 5617 5618 5619 5620 5621
5515 5521 5522 5522 5526 5527 5526 5533 5532 5530 5523 5516 5522 5518 5534 5543 5547 5550 5551 5552 5554 5558 5561 5564 5568 5572 5577 5581 5583 5586 5589 5592 5595 5598 5599 5601 5602 5604 5605 5607 5607 5608 5610 5611
5514 5519 5519 5521 5525 5526 5526 5525 5522 5514 5509 5507 5514 5511 5521 5529 5539 5543 5543 5543 5545 5548 5551 5554 5558 5561 5565 5569 5572 5575 5578 5581 5583 5586 5588 5591 5593 5594 5596 5597 5598 5599 5600 5601
5506 5510 5514 5518 5517 5517 5515 5508 5498 5497 5490 5499 5512 5511 5518 5528 5531 5534 5535 5535 5536 5538 5540 5543 5548 5551 5554 5557 5560 5563 5566 5569 5572 5574 5577 5580 5583 5585 5587 5588 5589 5590 5591 5592
5496 5499 5506 5510 5510 5508 5507 5502 5493 5492 5490 5494 5503 5504 5515 5521 5524 5526 5527 5526 5527 5528 5530 5534 5537 5540 5543 5546 5549 5552 5555 5558 5561 5563 5566 5570 5573 5575 5578 5580 5581 5582 5584 5586
5491 5494 5503 5506 5508 5508 5503 5494 5494 5482 5478 5478 5489 5497 5509 5515 5514 5515 5516 5517 5517 5519 5521 5524 5526 5529 5532 5535 5537 5540 5543 5546 5550 5553 5556 5559 5563 5565 5569 5570 5573 5575 5576 5577
5488 5484 5492 5498 5503 5501 5499 5493 5483 5476 5474 5477 5484 5490 5500 5504 5504 5506 5506 5507 5508 5509 5511 5513 5515 5517 5520 5523 5525 5528 5531 5535 5539 5543 5546 5551 5554 5557 5560 5561 5564 5567 5568 5568
5485 5479 5481 5486 5486 5488 5489 5485 5478 5469 5467 5467 5475 5495 5505 5501 5501 5500 5499 5498 5498 5498 5500 5501 5503 5505 5508 5511 5513 5516 5520 5524 5528 5533 5538 5542 5546 5548 5550 5553 5557 5559 5560 5560
5479 5470 5468 5476 5483 5486 5484 5479 5472 5470 5464 5457 5458 5485 5499 5494 5493 5492 5490 5490 5489 5489 5489 5490 5491 5494 5497 5499 5502 5506 5509 5514 5518 5523 5528 5533 5537 5539 5541 5545 5548 5550 5551 5551
5475 5465 5465 5474 5476 5474 5474 5474 5468 5462 5457 5451 5456 5482 5493 5486 5485 5483 5481 5479 5479 5480 5480 5480 5480 5482 5485 5488 5492 5495 5499 5504 5508 5513 5518 5523 5527 5530 5532 5535 5538 5540 5541 5541
5473 5457 5462 5473 5475 5465 5464 5466 5463 5458 5451 5452 5460 5475 5482 5479 5476 5474 5472 5470 5468 5469 5470 5470 5470 5471 5475 5479 5483 5486 5490 5494 5499 5504 5508 5511 5516 5519 5521 5524 5527 5530 5531 5530
5464 5452 5453 5457 5462 5462 5463 5464 5460 5457 5455 5454 5465 5464 5474 5469 5464 5463 5462 5461 5461 5461 5461 5461 5461 5462 5465 5469 5473 5477 5481 5485 5490 5494 5498 5501 5505 5507 5510 5513 5516 5518 5519 5520
5450 5446 5446 5451 5458 5458 5459 5463 5460 5459 5456 5454 5456 5461 5465 5460 5456 5454 5452 5452 5453 5452 5452 5452 5453 5453 5455 5458 5462 5467 5471 5475 5480 5483 5487 5490 5493 5497 5500 5502 5504 5506 5507 5509
5438 5436 5438 5444 5446 5452 5457 5463 5459 5457 5452 5452 5453 5458 5454 5451 5450 5447 5445 5444 5443 5443 5442 5443 5443 5443 5445 5447 5451 5455 5460 5465 5470 5473 5477 5480 5484 5487 5489 5491 5492 5494 5495 5496
5433 5429 5425 5429 5437 5446 5467 5459 5456 5453 5449 5446 5447 5447 5445 5443 5443 5440 5438 5436 5435 5435 5434 5434 5434 5435 5437 5439 5443 5446 5451 5456 5460 5463 5467 5470 5473 5476 5478 5480 5481 5482 5484 5484
5433 5428 5419 5417 5424 5440 5457 5455 5448 5445 5445 5443 5440 5441 5439 5437 5435 5433 5433 5430 5429 5428 5427 5426 5426 5427 5428 5431 5434 5438 5442 5446 5449 5452 5456 5459 5462 5465 5466 5469 5470 5471 5472 5472
5425 5420 5413 5408 5422 5437 5458 5449 5443 5441 5440 5440 5435 5433 5429 5427 5424 5430 5428 5424 5422 5421 5420 5419 5419 5419 5421 5424 5427 5430 5433 5436 5439 5442 5445 5448 5451 5453 5455 5457 5458 5459 5460 5460
5414 5407 5404 5403 5409 5430 5442 5436 5438 5435 5442 5435 5428 5425 5420 5418 5419 5420 5419 5416 5414 5413 5413 5413 5412 5412 5414 5416 5419 5421 5424 5427 5430 5433 5435 5438 5440 5442 5443 5444 5445 5447 5447 5447
5412 5403 5397 5396 5403 5430 5434 5427 5426 5431 5428 5424 5420 5417 5414 5412 5412 5411 5409 5407 5406 5405 5405 5405 5405 5405 5406 5408 5409 5412 5414 5417 5420 5423 5425 5427 5428 5430 5431 5432 5433 5434 5435 5435
5410 5415 5411 5415 5430 5434 5426 5427 5425 5421 5417 5416 5412 5410 5407 5404 5403 5402 5401 5398 5397 5396 5396 5396 5396 5396 5397 5398 5400 5401 5403 5406 5410 5412 5413 5414 5415 5416 5418 5419 5420 5421 5422 5422
5410 5407 5406 5407 5420 5422 5420 5418 5417 5414 5411 5410 5406 5403 5399 5397 5396 5393 5392 5390 5389 5388 5387 5387 5387 5387 5388 5389 5390 5392 5393 5396 5398 5399 5401 5403 5403 5404 5406 5407 5408 5408 5409 5409
5414 5403 5401 5405 5415 5415 5417 5414 5413 5409 5404 5401 5399 5396 5394 5391 5389 5386 5384 5383 5382 5381 5380 5379 5378 5378 5379 5380 5381 5382 5384 5386 5387 5388 5389 5390 5392 5393 5394 5394 5395 5396 5397 5398
5408 5406 5406 5418 5419 5412 5416 5413 5408 5403 5399 5395 5392 5390 5388 5385 5382 5380 5378 5377 5375 5373 5372 5370 5370 5370 5371 5371 5372 5373 5374 5376 5377 5377 5378 5379 5380 5381 5383 5383 5384 5384 5386 5387